Zurück zum Katalog

CZ-2C YXX STAGE 2

AktivSSO
NORAD 67647·ROCKET BODY·🇨🇳 China
Dieser Satellitenname wurde noch nicht durch offizielle Quellen bestätigt.

Gestartet Jan 31, 2026 von Jiuquan Satellite Launch Center

Loading…

Nächste Überflüge (nächste 24 Stunden)

TLE

AktuellSource: Space-Track

Epoche: Sep 14, 2026, 11:26 UTC

1 67647U 26021B   26257.47678756  .00008590  00000-0  23488-3 0  9993
2 67647  97.6368 337.3060 0140930  68.2559 293.3612 15.28121628 34497

Verfolge CZ-2C YXX STAGE 2 in Echtzeit mit AllMySat

Download on the App Store